Regional Weather Roundup
Issued by NWS

Home | Current Version | Previous Version | Graphics & Text | Print | Product List | Glossary On
Versions: 1 2 3 4 5 6 7 8 9 10 11 12 13 14 15 16 17 18 19 20 21 22 23 24 25 26 27 28 29 30 31 32 33 34 35 36 37 38 39 40 41 42 43 44 45 46 47 48 49 50
242
ASUS43 KBIS 260510
RWRND

NORTH DAKOTA REGIONAL WEATHER ROUNDUP
NATIONAL WEATHER SERVICE BISMARCK ND
1200 AM CDT MON SEP 26 2016

NOTE: "FAIR" INDICATES FEW OR NO CLOUDS BELOW 12,000 FEET WITH NO
SIGNIFICANT WEATHER AND/OR OBSTRUCTIONS TO VISIBILITY.


NDZ001>003-009>011-017-260600-
NORTHWEST NORTH DAKOTA

CITY           SKY/WX    TMP DP  RH WIND       PRES   REMARKS
WILLISTON      CLEAR     42  34  73 S3        30.20S
MINOT          CLEAR     51  34  52 W12       30.12S
MINOT AFB      CLEAR     49  35  60 NW14      30.11S
$$

NDZ018>021-031>035-040>046-260600-
SOUTHWEST NORTH DAKOTA

CITY           SKY/WX    TMP DP  RH WIND       PRES   REMARKS
BISMARCK       CLEAR     46  35  65 W7        30.18S
DICKINSON      CLEAR     41  34  76 W7        30.21S
GARRISON         N/A     46  35  65 NW14      30.14F
HETTINGER ARPT CLEAR     39  35  86 NW3       30.26S
$$

NDZ004>008-012>016-024-026-027-054-260600-
NORTHEAST NORTH DAKOTA

CITY           SKY/WX    TMP DP  RH WIND       PRES   REMARKS
GRAND FORKS    CLOUDY    53  40  61 NW16      29.94S
GRND FRKS AFB  PTCLDY    54  38  55 NW14      29.95S
DEVILS LAKE    CLEAR     51  37  58 W17       30.03F
$$

NDZ022-023-025-028>030-036>039-047>053-260600-
SOUTHEAST NORTH DAKOTA

CITY           SKY/WX    TMP DP  RH WIND       PRES   REMARKS
FARGO          CLOUDY    57  39  51 W17       29.97F
JAMESTOWN      CLEAR     50  38  63 NW14      30.07S
$$





USA.gov is the U.S. government's official web portal to all federal, state and local government web resources and services.